GRUS-1B

operational
NORAD ID: 47934 Int'l Des: 2021-022 Owner: AXEL Country: J
LEOCIRCULARRETROGRADESSO

关于 GRUS-1B

正在加载描述...

实时位置

正在加载3D地球...

即将过境

高度历史

Altitude vs Time

uPlot chart will show altitude changes over time

两行轨道根数

1 47934U 21022C 26061.22815417 .00002469 00000-0 20975-3 0 9996
2 47934 97.5544 307.8614 0015128 327.3678 32.6609 14.98689581269872
Epoch: Mar 2, 2026 • Age: 43 hours

当前状态

高度 585.7 km
速度 7.56 km/s
星下点 32.59°N, 47.86°E
发射日期 Mar 22, 2021
运行时间 4.9 years
类型 other

技术详情

分类 Payload
质量 80.00 kg
干质量 80.00 kg
总质量 80.00 kg
长度 0.50 m
直径 0.50 m
跨度 0.50 m
形状 Box
制造商 AXEL
平台类型 GRUS
阶段状态 In Orbit
所有者/国家 AXEL/J

大型星座

Loading constellations...